Voltar ao catálogo

QIANFAN-228

AtivoComunicaçõesPO
NORAD 69857·PAYLOAD·🇨🇳 China

Lançado Jul 5, 2026 de Wenchang Space Launch Site

Loading…

Próximas Passagens (próximas 24 horas)

TLE

AtualizadoSource: Space-Track

Época: Sep 14, 2026, 20:37 UTC

1 69857U 26155K   26257.85962515  .00000003  00000-0 -12633-4 0  9990
2 69857  89.0081  54.2910 0036283  27.6231 332.6841 13.57843840  9961

Acompanhe QIANFAN-228 em tempo real com AllMySat

Download on the App Store